Regional Weather Roundup
Issued by NWS

Home | Current Version | Previous Version | Text Only | Print | Product List | Glossary On
Versions: 1 2 3 4 5 6 7 8 9 10 11 12 13 14 15 16 17 18 19 20 21 22 23 24 25 26 27 28 29 30 31 32 33 34 35 36 37 38 39 40 41 42 43 44 45 46 47 48 49 50
000
ASUS46 KSEW 311810
RWRWA

WASHINGTON REGIONAL WEATHER ROUNDUP
NATIONAL WEATHER SERVICE SEATTLE WA
1100 AM PDT TUE MAY 31 2016

NOTE:"FAIR" INDICATES FEW OR NO CLOUDS BELOW 12,000 FEET WITH NO
SIGNIFICANT WEATHER AND/OR OBSTRUCTIONS TO VISIBILITY.

WAZ505-507>509-311900-
SEATTLE, TACOMA, EVERETT, AND VICINITY

CITY           SKY/WX    TMP DP  RH WIND       PRES   REMARKS
EVERETT        MOSUNNY   65  49  56 VRB5      30.10F
6HR MIN TEMP:  50; 6HR MAX TEMP:  66;

BOEING FIELD   SUNNY     69  50  50 CALM      30.08F
6HR MIN TEMP:  54; 6HR MAX TEMP:  69;

RENTON         SUNNY     67  51  56 NW9       30.08F
6HR MIN TEMP:  50; 6HR MAX TEMP:  67;

SEATAC AIRPORT MOSUNNY   69  50  50 NW7       30.10F
6HR MIN TEMP:  52; 6HR MAX TEMP:  69;

JBLM-MCCHORD   MOSUNNY   69  48  48 N6        30.08F
6HR MIN TEMP:  43; 6HR MAX TEMP:  69;

PUYALLUP       FAIR      70  48  46 CALM      30.09F
BREMERTON      SUNNY     66  48  52 NE8       30.12F
6HR MIN TEMP:  46; 6HR MAX TEMP:  68;

JBLM-FT LEWIS  PTSUNNY   69  48  47 NW7       30.08F
6HR MIN TEMP:  45; 6HR MAX TEMP:  69;

TACOMA NARROWS SUNNY     66  47  50 VRB5      30.10F
6HR MIN TEMP:  50; 6HR MAX TEMP:  67;

$$

WAZ001-503-506-510-514-515-311900-
NORTH INTERIOR

CITY           SKY/WX    TMP DP  RH WIND       PRES   REMARKS
BELLINGHAM     SUNNY     68  51  54 NE3       30.09F
6HR MIN TEMP:  46; 6HR MAX TEMP:  68; 6HR PCP: TRACE;

FRIDAY HARBOR  MOSUNNY   67  50  54 CALM      30.12F
6HR MIN TEMP:  45; 6HR MAX TEMP:  67;

EASTSOUND      MOSUNNY   59  50  72 N5        30.10F
PORT ANGELES   MOSUNNY   65  47  52 VRB5      30.11F
6HR MIN TEMP:  47; 6HR MAX TEMP:  65;

EDIZ HOOK      FAIR      60  47  62 S6        30.11F
6HR MIN TEMP:  50; 6HR MAX TEMP:  61;

PORT TOWNSEND  FAIR      66  50  55 SW7       30.10F
NAS WHIDBEY    PTSUNNY   63  52  67 W6        30.14F
6HR MIN TEMP:  47; 6HR MAX TEMP:  63;

ARLINGTON      MOSUNNY   68  48  49 CALM      30.10F
6HR MIN TEMP:  43; 6HR MAX TEMP:  68;

BURLINGTON     SUNNY     66  52  59 NE5       30.09F
$$

WAZ020-022-039-040-504-511-512-311900-
SOUTHWEST INTERIOR

CITY           SKY/WX    TMP DP  RH WIND       PRES   REMARKS
SHELTON        SUNNY     70  46  42 VRB5      30.07F
6HR MIN TEMP:  43; 6HR MAX TEMP:  70;

OLYMPIA        SUNNY     68  46  45 N7        30.09F
6HR MIN TEMP:  43; 6HR MAX TEMP:  68;

CHEHALIS       FAIR      72  50  46 VRB7      30.08F
KELSO          SUNNY     70  48  46 NW8       30.09F
6HR MIN TEMP:  48; 6HR MAX TEMP:  70;

VANCOUVER      SUNNY     69  51  52 W7        30.03F
6HR MIN TEMP:  49; 6HR MAX TEMP:  70;

SCAPPOOSE, OR  SUNNY     72  53  51 CALM      30.03F
6HR MIN TEMP:  48; 6HR MAX TEMP:  72;

PORTLAND, OR   MOSUNNY   70  48  45 W5        30.03F
6HR MIN TEMP:  53; 6HR MAX TEMP:  70;

$$

WAZ021-516-517-311900-
WASHINGTON COAST

CITY           SKY/WX    TMP DP  RH WIND       PRES   REMARKS
FORKS          PTSUNNY   67  48  50 S5        30.09F
6HR MIN TEMP:  45; 6HR MAX TEMP:  69;

HOQUIAM        SUNNY     68  52  56 E8        30.07F HAZE
6HR MIN TEMP:  48; 6HR MAX TEMP:  68;

ASTORIA, OR    SUNNY     72  47  40 N8        30.04F
6HR MIN TEMP:  47; 6HR MAX TEMP:  72;

$$

WAZ019-023-024-040-518-519-311900-
CASCADE MOUNTAINS AND COLUMBIA GORGE

CITY           SKY/WX    TMP DP  RH WIND       PRES   REMARKS
STAMPEDE PASS  SUNNY     65  38  36 VRB5      30.17F
6HR MIN TEMP:  43; 6HR MAX TEMP:  65;

TROUTDALE, OR  SUNNY     72  49  44 CALM      30.02F
6HR MIN TEMP:  49; 6HR MAX TEMP:  72;

THE DALLES, OR SUNNY     71  37  28 SW5       30.09F
6HR MIN TEMP:  46; 6HR MAX TEMP:  72;

$$

WAZ026-027-041>044-520-521-311900-
EAST SLOPES

CITY           SKY/WX    TMP DP  RH WIND       PRES   REMARKS
OMAK           MOSUNNY   70  35  27 SE3       30.14F
6HR MIN TEMP:  52; 6HR MAX TEMP:  71;

WENATCHEE      SUNNY     71  38  29 CALM      30.12F
6HR MIN TEMP:  53; 6HR MAX TEMP:  71;

ELLENSBURG     SUNNY     73  42  32 VRB3      30.14F
6HR MIN TEMP:  43; 6HR MAX TEMP:  73;

YAKIMA         SUNNY     76  40  27 VRB3      30.12F
6HR MIN TEMP:  44; 6HR MAX TEMP:  76;

$$

WAZ028-034-035-311900-
COLUMBIA BASIN

CITY           SKY/WX    TMP DP  RH WIND       PRES   REMARKS
EPHRATA        SUNNY     73  35  25 SE6       30.12F
6HR MIN TEMP:  47; 6HR MAX TEMP:  73;

MOSES LAKE     SUNNY     73  36  25 SE5       30.13F
PASCO          SUNNY     72  43  35 N6        30.12F
6HR MIN TEMP:  43; 6HR MAX TEMP:  72;

HERMISTON, OR  SUNNY     74  40  29 N8        30.10F
6HR MIN TEMP:  39; 6HR MAX TEMP:  74;

$$

WAZ036>038-311900-
NORTHEAST WASHINGTON

CITY           SKY/WX    TMP DP  RH WIND       PRES   REMARKS
SPOKANE GEIGER MOSUNNY   68  38  33 NE7       30.16F
6HR MIN TEMP:  48; 6HR MAX TEMP:  68;

SPOKANE FELTS  SUNNY     70  42  36 CALM      30.16F
6HR MIN TEMP:  45; 6HR MAX TEMP:  70;

FAIRCHILD AFB  SUNNY     67  39  36 E5        30.16F
6HR MIN TEMP:  45; 6HR MAX TEMP:  67;

COEURDALENE,ID SUNNY     66  41  39 N5        30.14F
6HR MIN TEMP:  41; 6HR MAX TEMP:  66;

DEER PARK      SUNNY     68  36  30 VRB5      30.17F
6HR MIN TEMP:  41; 6HR MAX TEMP:  68;

$$

WAZ029>033-311900-
SOUTHEAST WASHINGTON

CITY           SKY/WX    TMP DP  RH WIND       PRES   REMARKS
PULLMAN        SUNNY     67  40  37 CALM      30.18S
6HR MIN TEMP:  37; 6HR MAX TEMP:  68;

LEWISTON, ID   SUNNY     69  39  33 N5        30.14F
6HR MIN TEMP:  46; 6HR MAX TEMP:  69;

WALLA WALLA    SUNNY     72  39  30 N3        30.11F
6HR MIN TEMP:  47; 6HR MAX TEMP:  72;

PENDLETON, OR  SUNNY     74  32  21 N8        30.10F
6HR MIN TEMP:  44; 6HR MAX TEMP:  74;

$$



USA.gov is the U.S. government's official web portal to all federal, state and local government web resources and services.